Akebono — JG5644 — position and weather

sailwx.info

Track history (hours):
 
Tides and Currents Weather Stations Pressure Air Temp Water Temp Dewpoint Dewpoint Depression Visibility Wind Speed Wind Dir Waves Ship Positions

Akebono

Last reported at 2014-Oct-24 23:31 UTC. Time now 2014-Oct-25 00:44 UTC.
Position N 35°27' E 139°39'.

Length 33 m; draft 4.4 m.

Type: Tug. MMSI: 431000233.

Date/timePositionNaut miles runAvg speedWind from/ knotsBaromVisibWave heightAir tempDewpointWater temp
2014-Oct-24 23:31N 35°27' E 139°39'3 3.2
2014-Oct-24 22:34N 35°24' E 139°41'2 1.6
2014-Oct-24 21:34N 35°25' E 139°42'1 0.7
2014-Oct-24 20:34N 35°26' E 139°42'1 1.4
2014-Oct-24 19:33N 35°27' E 139°40'1 0.8
2014-Oct-24 18:33N 35°28' E 139°40'0 0.0
2014-Oct-24 17:33N 35°28' E 139°40'0 0.0
2014-Oct-24 16:33N 35°28' E 139°40'0 0.0
2014-Oct-24 15:33N 35°28' E 139°40'1 1.2
2014-Oct-24 14:33N 35°26' E 139°41'1 1.2
2014-Oct-24 13:33N 35°28' E 139°41'0 0.0
2014-Oct-24 12:33N 35°28' E 139°41'1 1.4
2014-Oct-24 11:34N 35°27' E 139°42'1 0.8
2014-Oct-24 10:33N 35°27' E 139°42'0 0.0
2014-Oct-24 09:33N 35°27' E 139°42'1 1.0
2014-Oct-24 08:33N 35°26' E 139°42'0 0.4
2014-Oct-24 07:33N 35°26' E 139°42'1 1.2
2014-Oct-24 06:33N 35°27' E 139°40'1 0.8
2014-Oct-24 05:33N 35°27' E 139°39'0 0.0
2014-Oct-24 04:34N 35°27' E 139°39'0 0.0
2014-Oct-24 03:33N 35°27' E 139°39'0 0.0
2014-Oct-24 02:33N 35°27' E 139°39'0 0.0
2014-Oct-24 01:33N 35°27' E 139°39'0 0.0
2014-Oct-24 00:33N 35°27' E 139°39'3 2.8
2014-Oct-23 23:33N 35°24' E 139°39'3 3.1
2014-Oct-23 22:34N 35°27' E 139°42'2 2.1
2014-Oct-23 21:33N 35°27' E 139°39'0 0.0
2014-Oct-23 07:07N 35°27' E 139°39'0 0.4
2014-Oct-23 06:34N 35°27' E 139°39'1 0.5
2014-Oct-23 05:33N 35°27' E 139°39'7 7.4
2014-Oct-23 04:33N 35°20' E 139°42'4 1.2
2014-Oct-23 01:16N 35°16' E 139°41'0 0.0
2014-Oct-22 03:27N 35°16' E 139°41'2 2.7
2014-Oct-22 02:33N 35°19' E 139°40'2 2.4
2014-Oct-22 01:34N 35°17' E 139°41'  
Track history (hours):
 
Tides and Currents Weather Stations Pressure Air Temp Water Temp Dewpoint Dewpoint Depression Visibility Wind Speed Wind Dir Waves Ship Positions

Akebono

Last reported at 2014-Oct-24 23:31 UTC. Time now 2014-Oct-25 00:44 UTC.
Position N 35°27' E 139°39'.

Length 33 m; draft 4.4 m.

Type: Tug. MMSI: 431000233.

Date/timePositionNaut miles runAvg speedWind from/ knotsBaromVisibWave heightAir tempDewpointWater temp
2014-Oct-24 23:31N 35°27' E 139°39'3 3.2
2014-Oct-24 22:34N 35°24' E 139°41'2 1.6
2014-Oct-24 21:34N 35°25' E 139°42'1 0.7
2014-Oct-24 20:34N 35°26' E 139°42'1 1.4
2014-Oct-24 19:33N 35°27' E 139°40'1 0.8
2014-Oct-24 18:33N 35°28' E 139°40'0 0.0
2014-Oct-24 17:33N 35°28' E 139°40'0 0.0
2014-Oct-24 16:33N 35°28' E 139°40'0 0.0
2014-Oct-24 15:33N 35°28' E 139°40'1 1.2
2014-Oct-24 14:33N 35°26' E 139°41'1 1.2
2014-Oct-24 13:33N 35°28' E 139°41'0 0.0
2014-Oct-24 12:33N 35°28' E 139°41'1 1.4
2014-Oct-24 11:34N 35°27' E 139°42'1 0.8
2014-Oct-24 10:33N 35°27' E 139°42'0 0.0
2014-Oct-24 09:33N 35°27' E 139°42'1 1.0
2014-Oct-24 08:33N 35°26' E 139°42'0 0.4
2014-Oct-24 07:33N 35°26' E 139°42'1 1.2
2014-Oct-24 06:33N 35°27' E 139°40'1 0.8
2014-Oct-24 05:33N 35°27' E 139°39'0 0.0
2014-Oct-24 04:34N 35°27' E 139°39'0 0.0
2014-Oct-24 03:33N 35°27' E 139°39'0 0.0
2014-Oct-24 02:33N 35°27' E 139°39'0 0.0
2014-Oct-24 01:33N 35°27' E 139°39'0 0.0
2014-Oct-24 00:33N 35°27' E 139°39'3 2.8
2014-Oct-23 23:33N 35°24' E 139°39'3 3.1
2014-Oct-23 22:34N 35°27' E 139°42'2 2.1
2014-Oct-23 21:33N 35°27' E 139°39'0 0.0
2014-Oct-23 07:07N 35°27' E 139°39'0 0.4
2014-Oct-23 06:34N 35°27' E 139°39'1 0.5
2014-Oct-23 05:33N 35°27' E 139°39'7 7.4
2014-Oct-23 04:33N 35°20' E 139°42'4 1.2
2014-Oct-23 01:16N 35°16' E 139°41'0 0.0
2014-Oct-22 03:27N 35°16' E 139°41'2 2.7
2014-Oct-22 02:33N 35°19' E 139°40'2 2.4
2014-Oct-22 01:34N 35°17' E 139°41'  

Dump ship's entire track history